COSMOS 2535 DEB, 44640

Orbit data source: Space-Track

COSMOS 2535 DEB, 44640 is space debris in SSO originally from a launch on Wed, 10 Jul 2019 UTC launched from the Plesetsk Missile And Space Complex (PKMTR). Debris objects in space refer to the collection of defunct objects orbiting the Earth. Examples of debris include non-operational satellites, rocket bodies, and fragments generated from explosions, collisions, or faulty payload assembly.

Loading next visibility...
Identifier
44640, 2019-039L
Orbit
SSO
Country
Flag of CISCIS
Related business
Manufacturer
Unknown
Mission
Spacecraft
Bus & Motor
Unknown
Mass
Unknown
Launch date (UTC)
2019-07-10 (6 years ago)
Launch vehicle
Unknown
Launch site
Plesetsk Missile And Space Complex (PKMTR)
Object type
Payload
Rocket body
Debris
Shape & HBR
Unknown shape, 0.1 m
Radar Cross Section
Small (<0.1 m²)

Expand to show TLE details & history
Last TLE update: 3 days ago

TLE from 3 days ago
0 COSMOS 2535 DEB
1 44640U 19039L   25284.91524692  .00001887  00000-0  25921-3 0  9995
2 44640  97.7431 273.1726 0060519 159.3705 200.9970 14.78234046323790
Epoch: 2025-10-11T21:57Z
TLE epoch observation values (Epoch: 2025-10-11T21:57:57.333Z)
Latitude
-0.00005°
Longitude
-77.05617°
Altitude
677.593 km
Speed
7.497 km/s
True Right ascension
18h 12m 41s
True Declination
0° 00' 00"
Sunlit
Object was in daylight at epoch
Visualization orbit readout
Latitude
Unknown
Longitude
Unknown
Altitude
Unknown
Speed
Unknown
Apparent Right ascension
Unknown
Apparent Declination
Unknown
Sunlit
N/A
Visualization observer readout
Local Sidereal Time
07:44:45
Azimuth
Unknown
Elevation
Unknown
Doppler factor
Unknown
Orbital elements
Apogee altitude
674.364 km
Perigee altitude
589.516 km
Semi-major axis
7,010.077 km
Eccentricity
0.00605
Inclination
97.7431°
RAAN
273.1726°
Arg. of periapsis
159.3705°
True anomaly
200.75025°
Mean anomaly
200.997°
Eccentric anomaly
200.87345°
Mean motion
3.69793 °/min
Orbital period
97.35 mins
BSTAR
0.00025921
Loading maneuver chart data...
Computing Atmospheric mass density...
Loading historical data...
Loading historical data...
Loading historical data...
Loading historical data...
Loading historical data...
Loading historical data...
Loading historical data...

Documentation

Showing up to 5 results
|